Total_Precipitation_Accumulation
0.00 0.00 0.00 0.00 0.00 0.02 0.07 0.05 0.10 0.06 0.02 0.06 0.06 0.04 0.02 0.00 0.00 0.00 0.00 0.00 0.00 0.00 0.00 0.00 0.00 0.00 0.00 0.00 0.00 0.00 0.00 0.00
0.00 0.00 0.00 0.00 0.00 0.00 0.11 0.14 0.11 0.07 0.05 0.08 0.10 0.10 0.05 0.01 0.00 0.00 0.00 0.00 0.00 0.00 0.00 0.00 0.00 0.00 0.00 0.00 0.00 0.00 0.00 0.00
0.00 0.01 0.01 0.00 0.01 0.00 0.05 0.14 0.13 0.11 0.09 0.13 0.14 0.12 0.14 0.10 0.01 0.00 0.00 0.00 0.00 0.00 0.00 0.00 0.00 0.00 0.00 0.00 0.00 0.00 0.00 0.00
0.00 0.01 0.00 0.00 0.01 0.02 0.01 0.05 0.08 0.08 0.08 0.10 0.12 0.08 0.10 0.07 0.10 0.07 0.00 0.01 0.00 0.00 0.00 0.00 0.00 0.00 0.00 0.00 0.00 0.00 0.02 0.03
0.00 0.00 0.01 0.03 0.02 0.02 0.02 0.03 0.03 0.04 0.04 0.04 0.04 0.06 0.04 0.02 0.04 0.05 0.02 0.00 0.00 0.00 0.00 0.00 0.00 0.00 0.00 0.00 0.00 0.00 0.00 0.03
0.00 0.00 0.00 0.01 0.09 0.09 0.09 0.10 0.06 0.02 0.01 0.06 0.07 0.07 0.07 0.04 0.04 0.04 0.03 0.02 0.00 0.00 0.00 0.00 0.00 0.00 0.00 0.00 0.00 0.00 0.00 0.04
0.00 0.00 0.00 0.00 0.00 0.08 0.14 0.11 0.16 0.15 0.07 0.06 0.07 0.10 0.10 0.11 0.06 0.06 0.04 0.04 0.03 0.02 0.00 0.00 0.00 0.00 0.00 0.00 0.00 0.00 0.01 0.03
0.00 0.00 0.00 0.00 0.00 0.00 0.09 0.17 0.22 0.26 0.17 0.09 0.15 0.16 0.15 0.18 0.13 0.11 0.08 0.06 0.06 0.03 0.02 0.01 0.00 0.00 0.00 0.00 0.02 0.01 0.00 0.00
0.00 0.00 0.00 0.00 0.00 0.00 0.00 0.08 0.23 0.23 0.21 0.20 0.14 0.20 0.18 0.21 0.22 0.16 0.10 0.08 0.08 0.05 0.03 0.02 0.00 0.00 0.00 0.00 0.00 0.00 0.00 0.00
0.00 0.00 0.00 0.00 0.00 0.00 0.00 0.00 0.06 0.13 0.22 0.17 0.15 0.10 0.16 0.20 0.27 0.24 0.25 0.19 0.14 0.07 0.03 0.02 0.01 0.00 0.00 0.00 0.00 0.00 0.00 0.00
0.00 0.00 0.00 0.00 0.00 0.00 0.00 0.00 0.03 0.07 0.09 0.29 0.36 0.32 0.32 0.29 0.22 0.26 0.33 0.29 0.22 0.15 0.06 0.01 0.00 0.00 0.00 0.00 0.00 0.00 0.00 0.00
0.00 0.00 0.00 0.00 0.00 0.00 0.00 0.00 0.00 0.01 0.05 0.21 0.37 0.44 0.54 0.53 0.45 0.32 0.33 0.30 0.24 0.23 0.18 0.12 0.03 0.00 0.00 0.00 0.00 0.00 0.00 0.00
0.00 0.00 0.00 0.00 0.00 0.00 0.00 0.00 0.00 0.00 0.00 0.07 0.27 0.51 0.64 0.85 0.85 0.71 0.45 0.33 0.25 0.26 0.28 0.25 0.18 0.09 0.10 0.03 0.01 0.00 0.00 0.00
0.00 0.00 0.00 0.00 0.00 0.00 0.00 0.00 0.00 0.00 0.00 0.01 0.07 0.15 0.40 0.66 0.86 0.97 1.17 0.86 0.57 0.40 0.40 0.40 0.62 0.73 0.40 0.08 0.03 0.02 0.00 0.00
0.00 0.00 0.00 0.00 0.00 0.00 0.00 0.00 0.00 0.00 0.00 0.00 0.01 0.06 0.17 0.35 0.67 0.71 0.66 0.82 0.94 0.98 1.06 1.04 0.91 0.89 0.83 0.52 0.12 0.03 0.00 0.00
0.00 0.00 0.00 0.00 0.00 0.00 0.00 0.00 0.01 0.01 0.01 0.01 0.00 0.03 0.16 0.26 0.34 0.38 0.67 0.84 0.56 0.70 0.56 0.75 0.95 1.09 1.31 0.93 0.44 0.06 0.00 0.00
0.00 0.00 0.00 0.00 0.00 0.00 0.00 0.01 0.02 0.02 0.02 0.02 0.01 0.01 0.05 0.23 0.36 0.40 0.48 0.53 0.52 0.53 0.35 0.25 0.27 0.36 0.38 0.68 0.88 0.37 0.07 0.00
0.00 0.00 0.00 0.00 0.00 0.00 0.01 0.02 0.02 0.02 0.02 0.03 0.01 0.03 0.05 0.19 0.34 0.44 0.86 0.97 0.74 0.53 0.78 0.68 0.46 0.34 0.34 0.47 0.36 0.24 0.10 0.03
0.00 0.00 0.00 0.00 0.00 0.00 0.01 0.02 0.02 0.02 0.03 0.04 0.03 0.03 0.05 0.15 0.74 0.96 1.08 1.32 1.66 0.94 0.78 1.09 1.32 0.90 0.67 0.47 0.44 0.37 0.23 0.17
0.01 0.01 0.02 0.01 0.00 0.01 0.02 0.02 0.03 0.04 0.04 0.04 0.06 0.10 0.09 0.11 0.35 1.31 1.40 1.38 1.70 1.64 1.14 1.08 1.55 1.72 1.41 1.11 0.73 0.72 0.68 0.55